Location: Newark
(13.5236°S, 71.9791°W)
Time: 21:04:27
(UTC+00:00)

LilacSat-2 - Visible Passes

Search period start: 19 October 2019 00:00
Search period end: 29 October 2019 00:00
Orbit: 513 x 536 km, 97.5° (Epoch: 19 October)

Date Brightness Start Highest point End Pass type
(mag) Time Alt. Az. Time Alt. Az. Time Alt. Az.
20 Oct ? 09:56:51 10° NNE 10:00:31 53° ESE 10:04:16 10° S visible
20 Oct ? 23:19:37 10° SW 23:21:34 13° WSW 23:23:29 10° WNW visible
21 Oct ? 09:45:00 10° NE 09:48:25 34° ESE 09:51:53 10° SSE visible
21 Oct ? 23:06:35 10° SSW 23:09:28 20° WSW 23:12:20 10° NW visible
22 Oct ? 09:33:20 10° NE 09:36:18 22° ESE 09:39:19 10° SSE visible
23 Oct ? 09:22:01 10° ENE 09:24:13 15° ESE 09:26:25 10° SE visible
28 Oct ? 23:16:16 10° SW 23:18:28 15° WSW 23:20:39 10° WNW visible
